#timestamp,LO_Frequency,Hit,StdDev 
1507899615.4,286046996.5,N
1507899635.3,286046993.6,Y
1507899655.1,286046997.8,P
1507899675.8,286046993.1,P
1507899695.7,286046992.0,P
1507899715.5,286046993.6,N
1507899735.3,286046993.8,N
1507899755.2,286046995.4,N
1507899775.9,286046997.2,N
1507899795.7,286046996.7,N
1507899815.6,286046992.0,Y
1507899835.4,286046996.7,P
1507899855.2,286046999.6,N
1507899875.1,286046996.6,N
1507899876.0,286046996.6,N
1507899895.8,286046999.3,N
1507899915.6,286046997.4,N
1507899935.5,286046997.8,N
1507899955.3,286046996.6,N
1507899975.1,286047002.3,N
1507899995.9,286047002.2,N
1507900015.7,286047005.8,N
1507900035.5,286047003.3,N
1507900055.4,286047006.0,N
1507900075.2,286047003.3,N
1507900095.0,286046999.0,N
1507900095.9,286046999.0,N
1507900115.8,286047000.7,N
1507900135.6,286046999.8,N
1507900155.4,286046998.7,N
1507900175.3,286047000.1,N
1507900195.1,286047000.0,N
1507900196.0,286047000.0,N
1507900215.8,286047001.4,N
1507900235.6,286046998.9,N
1507900255.5,286046998.9,N
1507900275.3,286046994.9,N
1507900295.1,286046996.7,N
1507900315.9,286047001.4,N
1507900335.7,286047006.8,N
1507900355.5,286047006.3,N
1507900375.4,286047008.7,N
1507900395.2,286047004.7,N
1507900415.0,286047003.0,N
1507900415.9,286047003.0,N
1507900435.8,286047003.1,N
1507900455.6,286047004.2,N
1507900475.4,286047000.5,N
1507900495.3,286047002.6,N
1507900515.1,286047001.3,N
1507900516.0,286047001.3,N
1507900535.8,286046998.4,N
1507900555.7,286047000.8,N
1507900575.5,286046998.1,N
1507900595.3,286047000.3,N
1507900615.2,286047004.0,N
1507900635.9,286047005.3,N
1507900655.7,286047004.0,N
1507900675.5,286047001.3,N
1507900695.4,286047003.4,N
1507900715.2,286047001.4,N
1507900735.0,286046999.8,N
1507900735.9,286046999.8,N
1507900755.8,286047003.9,N
1507900775.6,286047001.5,N
1507900795.4,286047004.1,N
1507900815.3,286047000.4,N
1507900835.1,286047002.1,N
1507900855.8,286047005.8,N
1507900875.7,286047003.4,N
1507900895.5,286047001.5,N
1507900915.3,286047002.0,N
1507900935.2,286047000.7,N
1507900955.9,286047000.8,N
1507900975.7,286047004.2,N
1507900995.6,286047000.2,N
1507901015.4,286047000.6,N
1507901035.2,286046998.7,N
1507901055.0,286047001.2,N
1507901056.0,286047001.2,N
1507901075.8,286046998.1,N
1507901095.6,286046997.1,N
1507901115.4,286046996.9,N
1507901135.3,286047002.2,N
1507901155.1,286047003.8,N
1507901175.8,286046999.8,N
1507901195.7,286047001.6,N
1507901215.5,286047001.6,N
1507901235.3,286047000.6,N
1507901255.2,286046998.6,N
1507901275.9,286046995.1,N
1507901295.7,286046996.5,N
1507901315.6,286046998.0,N
1507901335.4,286046997.9,N
1507901355.2,286046993.6,N
1507901375.1,286046993.7,N
1507901376.0,286046993.7,N
1507901395.8,286046992.4,N
1507901415.6,286046995.6,N
1507901435.5,286046995.4,N
1507901455.3,286046991.1,N
1507901475.1,286046988.5,Y
1507901495.9,286046990.4,P
1507901515.7,286046992.8,N
1507901535.5,286046995.5,N
1507901555.3,286046997.8,N
1507901575.2,286046997.6,N
1507901595.0,286046997.3,N
1507901595.9,286046997.3,N
1507901615.7,286046996.9,N
1507901635.6,286046997.5,N
1507901655.4,286046995.8,N
1507901675.2,286046998.7,N
1507901695.1,286046995.4,N
1507901696.0,286046995.4,N
1507901715.8,286046995.5,N
1507901735.6,286046995.5,N
1507901755.5,286046993.5,Y
1507901775.3,286047001.2,P
1507901795.1,286047000.3,N
1507901815.9,286047000.1,N
1507901835.7,286047003.3,N
1507901855.5,286047005.3,N
1507901875.4,286047007.3,N
1507901895.2,286047006.7,N
1507901915.0,286047008.7,N
1507901915.9,286047008.7,N
1507901935.8,286047009.0,N
1507901955.6,286047007.7,N
1507901975.4,286047010.6,N
1507901995.2,286047006.6,N
1507902015.1,286047005.3,N
1507902016.0,286047005.3,N
1507902035.8,286047005.8,N
1507902055.6,286047005.1,N
1507902075.5,286047006.8,N
1507902095.3,286047005.2,N
1507902115.1,286047004.1,N
1507902135.9,286047010.5,Y
1507902155.7,286047004.4,P
1507902175.5,286047008.6,P
1507902195.4,286047009.2,P
1507902215.2,286047006.4,Y
1507902235.0,286047005.5,P
1507902236.0,286047005.5,P
1507902255.8,286047009.1,P
1507902275.6,286047008.8,Y
1507902295.5,286047002.0,P
1507902315.3,286046999.4,N
1507902335.1,286046995.8,N
1507902355.8,286046997.4,N
1507902375.7,286046993.6,N
1507902395.5,286046994.5,N
1507902415.3,286046998.4,N
1507902435.2,286046997.3,N
1507902455.9,286046998.7,N
1507902475.7,286046996.2,N
1507902495.6,286046997.0,N
1507902515.4,286046993.8,N
1507902535.2,286046995.9,N
1507902555.0,286046995.3,N
1507902556.0,286046995.3,N
1507902575.8,286046995.5,N
1507902595.6,286046994.7,N
1507902615.4,286046995.5,N
1507902635.3,286046995.0,N
1507902655.1,286046995.4,N
1507902675.8,286046993.5,N
1507902695.7,286046995.3,N
1507902715.5,286046995.8,N
1507902735.3,286046995.5,N
1507902755.2,286046994.5,N
1507902775.9,286046992.4,N
1507902795.7,286046988.6,Y
1507902815.6,286046995.7,P
1507902835.4,286046991.8,P
1507902855.2,286047000.9,N
1507902875.1,286047001.1,N
1507902876.0,286047001.1,N
1507902895.8,286046994.0,N
1507902915.6,286046993.2,N
1507902935.5,286046994.2,N
1507902955.3,286046995.4,N
1507902975.1,286046995.7,N
1507902995.8,286046994.0,N
1507903015.7,286046997.4,N
1507903035.5,286046997.5,N
1507903055.3,286046991.8,N
1507903075.2,286046996.1,N
1507903095.0,286046995.0,N
1507903095.9,286046995.0,N
1507903115.7,286046999.6,N
1507903135.6,286046998.3,N
1507903155.4,286047003.9,N
1507903175.2,286047003.6,N
1507903195.1,286046999.3,N
1507903196.0,286046999.3,N
